Flag for U.S.A. Weather past 2 weeks in Brattleboro, Vermont, U.S.A.

Now
37 °F

Passing clouds.


Feels Like: 35 °F
Forecast: 30 / 45 °F
Wind: 3 mph from South

Location: Keene / Dillant

Current Time: Mar 30, 2015 at 11:24:45 PM

Latest Report: Mar 30, 2015 at 10:55 PM


Visibility: 10 mi

Pressure: 29.73 "Hg

Humidity: 60%

Dew point: 25 °F

Location of BrattleboroLocation

Historic Weather in Brattleboro — Graph

°F

Brattleboro temperature yesterday

Maximum temperature yesterday: 39 °F (at 2:55 PM)
Minimum temperature yesterday: 12 °F (at 6:15 AM)
Average temperature yesterday: 27 °F

Past Weeks' High & Low Weather Summary

 TemperatureHumidityPressure
High48 °F (Mar 17, 2:55 PM)100% (Mar 26, 4:15 PM)30.40 "Hg (Mar 26, 4:15 PM)
Low10 °F (Mar 24, 6:15 AM)20% (Mar 29, 2:55 PM)29.41 "Hg (Mar 17, 2:35 PM)
Average29 °F59%29.99 "Hg
* Reported Mar 15 10:15 PM — Mar 30 10:15 PM, Brattleboro, Weather by CustomWeather, © 2015

Note: Actual official high and low records may vary slightly from our data, if they occured in-between our weather recording intervals... More about our weather records

Advertising

Brattleboro weather history for previous 24 hours

 ConditionsComfort  
Time TempWeatherWind HumidityBarometerVisibility
10:15 PM
Mon, Mar 30
37 °FOvercast.7 mph60%29.72 "Hg10 mi
9:55 PM39 °FOvercast.7 mph56%29.73 "Hg10 mi
9:35 PM39 °FOvercast.6 mph56%29.73 "Hg10 mi
9:15 PM39 °FPassing clouds.8 mph56%29.72 "Hg10 mi
8:55 PM39 °FPassing clouds.7 mph56%29.72 "Hg10 mi
8:35 PM39 °FPassing clouds.3 mph56%29.72 "Hg10 mi
8:15 PM39 °FPassing clouds.6 mph56%29.72 "Hg10 mi
7:55 PM39 °FPassing clouds.3 mph56%29.72 "Hg10 mi
7:35 PM39 °FMostly cloudy.8 mph56%29.71 "Hg10 mi
7:15 PM43 °FMore clouds than sun.7 mph49%29.71 "Hg10 mi
6:55 PM43 °FOvercast.6 mph46%29.70 "Hg10 mi
6:35 PM43 °FOvercast.6 mph46%29.70 "Hg10 mi
6:15 PM43 °FMostly cloudy.9 mph49%29.69 "Hg10 mi
5:55 PM43 °FMostly cloudy.14 mph49%29.69 "Hg10 mi
5:35 PM41 °FOvercast.8 mph57%29.69 "Hg10 mi
5:15 PM41 °FOvercast.6 mph57%29.69 "Hg10 mi
4:55 PM41 °FMostly cloudy.5 mph61%29.69 "Hg10 mi
4:35 PM39 °FMostly cloudy.5 mph65%29.69 "Hg10 mi
4:15 PM39 °FOvercast.6 mph70%29.69 "Hg10 mi
3:55 PM39 °FMostly cloudy.5 mph65%29.69 "Hg10 mi
3:35 PM39 °FOvercast.5 mph65%29.69 "Hg10 mi
3:15 PM39 °FOvercast.9 mph61%29.68 "Hg10 mi
2:55 PM39 °FOvercast.7 mph65%29.69 "Hg10 mi
2:35 PM39 °FOvercast.5 mph61%29.69 "Hg10 mi
2:15 PM39 °FMostly cloudy.8 mph61%29.69 "Hg10 mi
1:55 PM39 °FMostly cloudy.12 mph65%29.69 "Hg10 mi
1:35 PM39 °FMostly cloudy.12 mph61%29.70 "Hg10 mi
1:15 PM37 °FMostly cloudy.12 mph65%29.71 "Hg10 mi
12:55 PM37 °FMostly cloudy.13 mph65%29.72 "Hg10 mi
12:35 PM36 °FOvercast.14 mph70%29.73 "Hg10 mi
12:15 PM36 °FMostly cloudy.15 mph70%29.73 "Hg10 mi
11:55 AM36 °FMostly cloudy.10 mph70%29.73 "Hg10 mi
11:35 AM36 °FMostly cloudy.10 mph65%29.74 "Hg10 mi
11:15 AM36 °FMostly cloudy.10 mph65%29.75 "Hg10 mi
10:55 AM34 °FMostly cloudy.14 mph70%29.76 "Hg10 mi
10:35 AM34 °FMostly cloudy.10 mph70%29.77 "Hg10 mi
10:15 AM34 °FMostly cloudy.12 mph70%29.78 "Hg10 mi
9:55 AM34 °FMostly cloudy.12 mph70%29.78 "Hg10 mi
9:35 AM34 °FOvercast.10 mph70%29.79 "Hg10 mi
9:15 AM32 °FOvercast.8 mph75%29.79 "Hg10 mi
8:55 AM32 °FMostly cloudy.8 mph69%29.80 "Hg10 mi
8:35 AM32 °FMostly cloudy.13 mph69%29.81 "Hg10 mi
8:15 AM32 °FBroken clouds.13 mph69%29.82 "Hg9 mi
7:55 AM32 °FBroken clouds.13 mph64%29.82 "Hg9 mi
7:35 AM34 °FCloudy.12 mph51%29.83 "Hg10 mi
7:15 AM32 °FMostly cloudy.8 mph51%29.84 "Hg10 mi
6:55 AM32 °FPartly cloudy.8 mph55%29.85 "Hg10 mi
6:35 AM32 °FPassing clouds.9 mph55%29.86 "Hg10 mi
6:15 AM30 °FClear.12 mph55%29.86 "Hg10 mi
5:55 AM30 °FPassing clouds.12 mph59%29.87 "Hg10 mi
5:35 AM30 °FPassing clouds.9 mph55%29.88 "Hg10 mi
5:15 AM28 °FClear.7 mph64%29.89 "Hg10 mi
4:55 AM27 °FClear.No wind74%29.90 "Hg10 mi
4:35 AM25 °FClear.No wind74%29.90 "Hg10 mi
4:15 AM25 °FClear.No wind74%29.91 "Hg10 mi
3:55 AM25 °FClear.No wind74%29.92 "Hg10 mi
3:35 AM25 °FClear.No wind74%29.93 "Hg10 mi
3:15 AM23 °FClear.No wind80%29.95 "Hg10 mi
2:55 AM23 °FClear.No wind80%29.96 "Hg10 mi
2:35 AM23 °FClear.No wind80%29.97 "Hg10 mi
2:15 AM21 °FClear.No wind86%29.99 "Hg10 mi
1:55 AM21 °FClear.3 mph80%29.99 "Hg10 mi
1:35 AM21 °FClear.No wind86%29.99 "Hg10 mi
1:15 AM23 °FClear.No wind80%30.02 "Hg10 mi
12:55 AM23 °FClear.No wind80%30.02 "Hg10 mi
12:35 AM23 °FClear.No wind74%30.03 "Hg10 mi
12:15 AM25 °FClear.No wind69%30.02 "Hg10 mi
11:55 PM
Sun, Mar 29
25 °FClear.No wind69%30.04 "Hg10 mi
11:35 PM25 °FClear.No wind69%30.05 "Hg10 mi
11:15 PM25 °FClear.No wind69%30.06 "Hg10 mi
Weather by CustomWeather, © 2015

See weather overviewHow to use our weather pages